Date String (YYYY-MM-DD hh:mm:ss) UTC,Instrument flags,Ambient pressure (hPa),Sample flow (lpm),Bypass flow (lpm),Sample temperature (°C),Ambient temperature (°C),ASC tube jacket temperature (°C),LED temperature (°C),Box temperature (°C),Sample RH (%),Span deviation,Mass concentration (μg/m³),Mass concentration (μg/m³),Mass concentration (μg/m³)
DateTimeUTC,F1_M11,P_M11,Q1_M11,Q2_M11,T1_M11,T2_M11,T3_M11,T4_M11,T5_M11,U1_M11,ZSPAN_M11,X0_M11,X2_M11,X1_M11
2021-11-29 13:00:00,,0829.1,5.01,0.00,28.8,28.0,00.0,37.9,30.6,11.7,0000.0,0000.42,0000.23,0000.12
2021-11-29 13:01:00,,0828.7,4.99,0.00,28.8,28.0,00.0,37.9,30.6,11.7,0000.0,0000.46,0000.25,0000.12
2021-11-29 13:02:00,,0828.7,5.00,0.00,28.8,28.0,00.0,37.8,30.6,11.7,0000.0,0000.51,0000.26,0000.12
2021-11-29 13:03:00,,0828.8,5.01,0.00,28.8,28.0,00.0,37.9,30.6,11.7,0000.0,0000.53,0000.26,0000.12
2021-11-29 13:04:00,,0828.9,4.98,0.00,28.8,28.0,00.0,37.9,30.6,11.7,0000.0,0000.52,0000.27,0000.13
2021-11-29 13:05:00,,0828.9,5.00,0.00,28.8,28.0,00.0,37.9,30.6,11.7,0000.0,0000.54,0000.27,0000.13
2021-11-29 13:06:00,,0828.8,5.00,0.00,28.8,28.0,00.0,37.9,30.6,11.7,0000.0,0000.53,0000.26,0000.13
2021-11-29 13:07:00,,0828.6,5.01,0.00,28.8,28.0,00.0,37.8,30.6,11.7,0000.0,0000.54,0000.27,0000.13
2021-11-29 13:08:00,,0828.7,4.99,0.00,28.8,28.0,00.0,37.8,30.6,11.7,0000.0,0000.52,0000.25,0000.13
2021-11-29 13:09:00,,0828.8,4.99,0.00,28.8,28.0,00.0,37.8,30.5,11.7,0000.0,0000.44,0000.23,0000.13
2021-11-29 13:10:00,,0829.0,5.00,0.00,28.8,28.0,00.0,37.8,30.5,11.7,0000.0,0000.40,0000.22,0000.13
2021-11-29 13:11:00,,0828.9,5.01,0.00,28.8,28.0,00.0,37.8,30.6,11.6,0000.0,0000.43,0000.23,0000.13
2021-11-29 13:12:00,,0828.8,5.00,0.00,28.8,28.0,00.0,37.8,30.6,11.6,0000.0,0000.39,0000.21,0000.13
2021-11-29 13:13:00,,0829.0,5.01,0.00,28.8,28.0,00.0,37.8,30.6,11.6,0000.0,0000.36,0000.18,0000.13
2021-11-29 13:14:00,,0829.1,5.00,0.00,28.8,28.0,00.0,37.8,30.6,11.6,0000.0,0000.43,0000.18,0000.13
2021-11-29 13:15:00,,0828.8,5.01,0.00,28.8,28.0,00.0,37.8,30.6,11.6,0000.0,0000.39,0000.17,0000.12
2021-11-29 13:16:00,,0829.0,4.99,0.00,28.8,28.0,00.0,37.8,30.6,11.6,0000.0,0000.35,0000.15,0000.12
2021-11-29 13:17:00,,0829.0,5.00,0.00,28.8,28.0,00.0,37.8,30.6,11.6,0000.0,0000.39,0000.17,0000.12
2021-11-29 13:18:00,,0828.6,5.01,0.00,28.8,28.0,00.0,37.8,30.6,11.5,0000.0,0000.54,0000.20,0000.13
2021-11-29 13:19:00,,0828.9,4.99,0.00,28.8,28.0,00.0,37.8,30.6,11.5,0000.0,0000.55,0000.21,0000.13
2021-11-29 13:20:00,,0828.9,5.01,0.00,28.9,28.0,00.0,37.8,30.6,11.5,0000.0,0000.63,0000.24,0000.14
2021-11-29 13:21:00,,0829.0,5.00,0.00,28.9,28.1,00.0,37.8,30.6,11.5,0000.0,0000.63,0000.24,0000.14
2021-11-29 13:22:00,,0828.7,5.00,0.00,28.9,28.1,00.0,37.8,30.6,11.5,0000.0,0000.75,0000.26,0000.15
2021-11-29 13:23:00,,0828.9,5.00,0.00,28.9,28.1,00.0,37.9,30.7,11.5,0000.0,0000.80,0000.27,0000.15
2021-11-29 13:24:00,,0829.0,5.00,0.00,28.9,28.1,00.0,37.9,30.7,11.5,0000.0,0000.79,0000.28,0000.15
2021-11-29 13:25:00,,0829.0,5.00,0.00,28.9,28.1,00.0,37.9,30.7,11.6,0000.0,0000.81,0000.29,0000.15
2021-11-29 13:26:00,,0828.8,4.99,0.00,28.9,28.1,00.0,37.9,30.7,11.6,0000.0,0000.80,0000.29,0000.15
2021-11-29 13:27:00,,0829.2,5.01,0.00,28.9,28.1,00.0,37.9,30.7,11.6,0000.0,0000.81,0000.29,0000.15
2021-11-29 13:28:00,,0828.9,5.00,0.00,28.9,28.1,00.0,37.9,30.7,11.6,0000.0,0000.86,0000.32,0000.15
2021-11-29 13:29:00,,0828.9,5.00,0.00,28.9,28.1,00.0,37.9,30.7,11.6,0000.0,0000.78,0000.31,0000.14
2021-11-29 13:30:00,,0829.0,4.99,0.00,28.9,28.1,00.0,37.9,30.7,11.5,0000.0,0000.77,0000.30,0000.14
2021-11-29 13:31:00,,0829.0,5.00,0.00,28.9,28.1,00.0,37.9,30.7,11.5,0000.0,0000.74,0000.28,0000.14
2021-11-29 13:32:00,,0828.7,5.00,0.00,28.9,28.1,00.0,37.9,30.7,11.5,0000.0,0000.83,0000.28,0000.14
2021-11-29 13:33:00,,0828.6,5.01,0.00,28.9,28.1,00.0,37.9,30.6,11.5,0000.0,0000.76,0000.30,0000.13
2021-11-29 13:34:00,,0828.3,5.01,0.00,28.9,28.0,00.0,37.9,30.6,11.5,0000.0,0001.01,0000.32,0000.13
2021-11-29 13:35:00,,0828.5,5.01,0.00,28.8,28.0,00.0,37.9,30.5,11.5,0000.0,0002.39,0000.39,0000.14
2021-11-29 13:36:00,,0828.8,4.99,0.00,28.8,28.0,00.0,37.8,30.4,11.5,0000.0,0002.34,0000.38,0000.14
2021-11-29 13:37:00,,0828.7,5.02,0.00,28.7,27.9,00.0,37.8,30.4,11.5,0000.0,0002.34,0000.38,0000.13
2021-11-29 13:38:00,,0828.7,4.99,0.00,28.7,27.9,00.0,37.8,30.4,11.5,0000.0,0002.33,0000.38,0000.13
2021-11-29 13:39:00,,0829.2,5.00,0.00,28.7,27.9,00.0,37.8,30.4,11.6,0000.0,0002.27,0000.35,0000.13
2021-11-29 13:40:00,,0828.8,5.01,0.00,28.7,27.9,00.0,37.8,30.4,11.5,0000.0,0002.23,0000.34,0000.13
2021-11-29 13:41:00,,0828.9,5.00,0.00,28.7,27.9,00.0,37.8,30.4,11.5,0000.0,0002.36,0000.36,0000.13
2021-11-29 13:42:00,,0829.0,4.99,0.00,28.7,27.9,00.0,37.8,30.4,11.5,0000.0,0002.40,0000.37,0000.14
2021-11-29 13:43:00,,0828.8,5.00,0.00,28.7,27.9,00.0,37.8,30.4,11.6,0000.0,0002.37,0000.38,0000.14
2021-11-29 13:44:00,,0828.8,5.00,0.00,28.7,27.9,00.0,37.8,30.4,11.5,0000.0,0002.30,0000.35,0000.14
2021-11-29 13:45:00,,0828.9,5.00,0.00,28.7,27.9,00.0,37.8,30.4,11.6,0000.0,0002.19,0000.33,0000.14
2021-11-29 13:46:00,,0829.0,5.01,0.00,28.7,27.8,00.0,37.8,30.4,11.6,0000.0,0001.49,0000.26,0000.14
2021-11-29 13:47:00,,0829.1,4.98,0.00,28.7,27.8,00.0,37.8,30.4,11.6,0000.0,0001.44,0000.25,0000.15
2021-11-29 13:48:00,,0829.0,5.01,0.00,28.7,27.8,00.0,37.7,30.4,11.5,0000.0,0001.44,0000.25,0000.15
2021-11-29 13:49:00,,0828.7,5.00,0.00,28.7,27.9,00.0,37.7,30.4,11.5,0000.0,0001.49,0000.26,0000.16
2021-11-29 13:50:00,,0828.8,5.01,0.00,28.7,27.9,00.0,37.7,30.4,11.5,0000.0,0001.47,0000.26,0000.16
2021-11-29 13:51:00,,0828.9,5.00,0.00,28.7,27.9,00.0,37.7,30.5,11.6,0000.0,0001.45,0000.25,0000.15
2021-11-29 13:52:00,,0828.8,5.00,0.00,28.7,27.9,00.0,37.7,30.5,11.6,0000.0,0001.84,0000.22,0000.15
2021-11-29 13:53:00,,0828.7,5.00,0.00,28.7,27.9,00.0,37.7,30.4,11.5,0000.0,0001.95,0000.21,0000.15
2021-11-29 13:54:00,,0829.1,4.99,0.00,28.7,27.9,00.0,37.7,30.4,11.5,0000.0,0001.89,0000.20,0000.15
2021-11-29 13:55:00,,0828.7,5.01,0.00,28.7,27.9,00.0,37.7,30.4,11.5,0000.0,0001.88,0000.19,0000.15
2021-11-29 13:56:00,,0828.7,4.99,0.00,28.7,27.9,00.0,37.7,30.4,11.5,0000.0,0001.69,0000.19,0000.15
2021-11-29 13:57:00,,0829.1,5.00,0.00,28.7,27.9,00.0,37.7,30.4,11.5,0000.0,0001.13,0000.19,0000.15
2021-11-29 13:58:00,,0828.9,5.01,0.00,28.7,27.9,00.0,37.7,30.4,11.5,0000.0,0001.41,0000.19,0000.15
2021-11-29 13:59:00,,0828.8,4.99,0.00,28.7,27.9,00.0,37.7,30.4,11.6,0000.0,0001.42,0000.20,0000.15
